CW4482 Weather Reports


Display with metric or nautical units.
time (UTC)temp
F
wind
direction
speed
MPH
gust
MPH
rain 1hr
in
rain 24hr
in
rain mn
in
humidity
%
barometer
mb
20260504050021 60 159 0.0 1.0 0.00 0.00 0.00 83 1018.0
20260504044543 61 159 0.0 1.0 0.00 0.00 0.00 81 1018.1
20260504043022 61 159 0.0 0.0 0.00 0.00 0.00 82 1018.1
20260504041524 62 159 0.0 1.0 0.00 0.00 0.00 81 1018.0
20260504040020 62 159 0.0 0.0 0.00 0.00 0.00 79 1018.1
20260504034520 63 159 0.0 1.0 0.00 0.00 0.00 79 1018.3
20260504033019 63 159 0.0 2.0 0.00 0.00 0.00 80 1018.2
20260504031521 64 159 1.0 5.0 0.00 0.00 0.00 80 1018.1
20260504030029 64 159 2.0 7.0 0.00 0.00 0.00 77 1018.0
20260504024555 65 159 1.0 5.0 0.00 0.00 0.00 76 1018.0
20260504023011 65 159 1.0 6.0 0.00 0.00 0.00 77 1018.0
20260504021516 65 159 2.0 6.0 0.00 0.00 0.00 78 1017.9
20260504020027 66 159 3.0 7.0 0.00 0.00 0.00 77 1017.7
20260504014527 66 159 2.0 5.0 0.00 0.00 0.00 76 1017.8
20260504013028 67 159 2.0 5.0 0.00 0.00 0.00 75 1017.5
20260504011527 67 152 1.0 7.0 0.00 0.00 0.00 73 1017.4
20260504010025 68 136 2.0 3.0 0.00 0.00 0.00 70 1017.4
20260504004530 69 136 1.0 4.0 0.00 0.00 0.00 70 1017.5
20260504003052 70 136 1.0 4.0 0.00 0.00 0.00 68 1017.4
20260504001532 72 136 0.0 4.0 0.00 0.00 0.00 68 1017.5
20260504000028 72 136 2.0 5.0 0.00 0.00 0.00 65 1017.6
20260503234531 74 135 2.0 5.0 0.00 0.00 0.00 66 1017.8
20260503233014 75 128 3.0 7.0 0.00 0.00 0.00 61 1017.9
20260503231536 76 142 2.0 7.0 0.00 0.00 0.00 61 1017.7
20260503230035 77 151 3.0 7.0 0.00 0.00 0.00 57 1018.0
20260503224529 79 131 3.0 8.0 0.00 0.00 0.00 54 1018.0
20260503223027 80 147 3.0 8.0 0.00 0.00 0.00 51 1018.3
20260503221520 81 142 0.0 7.0 0.00 0.00 0.00 51 1018.4
20260503220022 81 201 1.0 7.0 0.00 0.00 0.00 50 1018.3
20260503214527 81 205 4.0 11.0 0.00 0.00 0.00 47 1018.6
20260503213032 80 198 4.0 10.0 0.00 0.00 0.00 52 1018.7
20260503211513 81 161 2.0 6.0 0.00 0.00 0.00 49 1018.9
20260503210020 81 138 2.0 5.0 0.00 0.00 0.00 50 1019.1
20260503204514 81 105 2.0 4.0 0.00 0.00 0.00 47 1019.2
20260503203034 82 196 1.0 8.0 0.00 0.00 0.00 50 1019.5
20260503201528 82 143 2.0 8.0 0.00 0.00 0.00 48 1019.8
20260503200017 81 126 1.0 5.0 0.00 0.00 0.00 51 1020.1
20260503194532 81 128 1.0 4.0 0.00 0.00 0.00 42 1020.3
20260503193025 81 196 2.0 7.0 0.00 0.00 0.00 48 1020.6
20260503191528 79 105 2.0 4.0 0.00 0.00 0.00 40 1020.8
20260503190029 79 123 2.0 6.0 0.00 0.00 0.00 42 1020.9
20260503184525 79 90 2.0 4.0 0.00 0.00 0.00 47 1021.0
20260503183033 80 185 1.0 10.0 0.00 0.00 0.00 39 1021.3
20260503181528 79 172 1.0 4.0 0.00 0.00 0.00 52 1021.4
20260503180029 79 182 2.0 3.0 0.00 0.00 0.00 52 1021.7
20260503174528 78 206 2.0 9.0 0.00 0.00 0.00 49 1022.0
20260503173017 78 181 1.0 4.0 0.00 0.00 0.00 51 1022.4
20260503171518 77 174 2.0 3.0 0.00 0.00 0.00 50 1022.4
20260503081516 56 14 0.0 0.0 0.00 0.00 0.00 92 1020.5
20260503071518 57 14 0.0 0.0 0.00 0.00 0.00 92 1020.4